AAL2819 KJFK-KORD

Flight info

Callsign AAL2819
Flight time 2h 26m
Altitude 36000
Route COATE Q436 RAAKK Q438 TWIGS TVC VIIKS MADII7
Aircraft B738/M-SDE2E3FGHIRWXY/LB1

Departure

Time 2026-05-04 21:57
Airport John F. Kennedy International Airport (KJFK)

Arrival

Time 2026-05-05 00:24
Airport Chicago O'Hare International Airport (KORD)
Time Latitude Longitude Altitude Speed Heading
2026-05-04 21:34 40.64537 -73.77289 20 ft 0 kts
2026-05-04 21:46 40.64526 -73.77289 20 ft 3 kts
2026-05-04 21:46 40.64507 -73.77290 21 ft 3 kts
2026-05-04 21:47 40.64489 -73.77291 21 ft 3 kts
2026-05-04 21:47 40.64472 -73.77291 20 ft 3 kts
2026-05-04 21:47 40.64454 -73.77291 21 ft 3 kts
2026-05-04 21:47 40.64452 -73.77292 20 ft 0 kts
2026-05-04 21:50 40.64458 -73.77291 21 ft 2 kts
2026-05-04 21:50 40.64463 -73.77275 21 ft 2 kts 81°
2026-05-04 21:50 40.64463 -73.77259 22 ft 0 kts 89°
2026-05-04 21:51 40.64461 -73.77240 22 ft 8 kts 101°
2026-05-04 21:51 40.64448 -73.77162 19 ft 9 kts 103°
2026-05-04 21:52 40.64435 -73.77085 19 ft 9 kts 102°
2026-05-04 21:52 40.64444 -73.77013 19 ft 8 kts 46°
2026-05-04 21:52 40.64497 -73.76986 19 ft 8 kts
2026-05-04 21:52 40.64549 -73.76963 19 ft 8 kts 36°
2026-05-04 21:53 40.64595 -73.76923 19 ft 8 kts 35°
2026-05-04 21:53 40.64645 -73.76881 19 ft 9 kts 36°
2026-05-04 21:53 40.64704 -73.76834 19 ft 11 kts 34°
2026-05-04 21:53 40.64775 -73.76782 20 ft 12 kts 26°
2026-05-04 21:54 40.64847 -73.76716 21 ft 13 kts 28°
2026-05-04 21:54 40.64936 -73.76658 20 ft 15 kts 25°
2026-05-04 21:54 40.65032 -73.76581 21 ft 17 kts 33°
2026-05-04 21:54 40.65095 -73.76512 21 ft 10 kts 69°
2026-05-04 21:55 40.65091 -73.76459 23 ft 0 kts 110°
2026-05-04 21:56 40.65082 -73.76435 23 ft 4 kts 119°
2026-05-04 21:56 40.65064 -73.76401 22 ft 4 kts 128°
2026-05-04 21:56 40.65042 -73.76375 22 ft 4 kts 153°
2026-05-04 21:56 40.65012 -73.76371 21 ft 4 kts 188°
2026-05-04 21:57 40.64893 -73.76451 20 ft 57 kts 211°
2026-05-04 21:57 40.64290 -73.76920 21 ft 141 kts 211°
2026-05-04 21:57 40.63304 -73.77705 568 ft 175 kts 210°
2026-05-04 21:57 40.62350 -73.78483 1419 ft 161 kts 212°
2026-05-04 21:58 40.61350 -73.79247 1739 ft 173 kts 208°
2026-05-04 21:58 40.60172 -73.80023 2129 ft 190 kts 208°
2026-05-04 21:58 40.58994 -73.80827 2415 ft 198 kts 221°
2026-05-04 21:58 40.58330 -73.82485 2753 ft 221 kts 264°
2026-05-04 21:59 40.58578 -73.84460 3552 ft 220 kts 275°
2026-05-04 21:59 40.58341 -73.86437 4170 ft 223 kts 243°
2026-05-04 21:59 40.57285 -73.87953 4793 ft 233 kts 213°
2026-05-04 21:59 40.55720 -73.88493 5587 ft 240 kts 183°
2026-05-04 22:00 40.54094 -73.87919 6200 ft 255 kts 154°
2026-05-04 22:00 40.52784 -73.86252 6817 ft 268 kts 124°
2026-05-04 22:00 40.52199 -73.83904 7414 ft 277 kts 95°
2026-05-04 22:00 40.52480 -73.81444 8021 ft 279 kts 66°
2026-05-04 22:01 40.53566 -73.79364 8623 ft 276 kts 41°
2026-05-04 22:01 40.54968 -73.77639 9242 ft 279 kts 38°
2026-05-04 22:01 40.56435 -73.75910 9808 ft 283 kts 37°
2026-05-04 22:01 40.57936 -73.74153 10197 ft 298 kts 37°
2026-05-04 22:02 40.59564 -73.72267 10376 ft 325 kts 37°
2026-05-04 22:02 40.61333 -73.70238 10597 ft 349 kts 37°
2026-05-04 22:02 40.63230 -73.68080 10904 ft 368 kts 37°
2026-05-04 22:02 40.65187 -73.65859 11558 ft 375 kts 37°
2026-05-04 22:03 40.67172 -73.63599 12309 ft 379 kts 37°
2026-05-04 22:03 40.69171 -73.61313 13073 ft 383 kts 37°
2026-05-04 22:03 40.71183 -73.59000 13808 ft 387 kts 37°
2026-05-04 22:03 40.73229 -73.56642 14469 ft 391 kts 37°
2026-05-04 22:04 40.75281 -73.54272 15178 ft 394 kts 37°
2026-05-04 22:04 40.77347 -73.51884 15888 ft 396 kts 37°
2026-05-04 22:04 40.79427 -73.49479 16552 ft 399 kts 36°
2026-05-04 22:04 40.81737 -73.47507 16988 ft 393 kts 19°
2026-05-04 22:05 40.84341 -73.46595 17005 ft 384 kts 359°
2026-05-04 22:05 40.86951 -73.46885 17014 ft 373 kts 340°
2026-05-04 22:05 40.89305 -73.48143 17015 ft 368 kts 329°
2026-05-04 22:05 40.91340 -73.50121 16996 ft 361 kts 309°
2026-05-04 22:06 40.92669 -73.52915 16978 ft 359 kts 292°
2026-05-04 22:06 40.93407 -73.56062 16978 ft 358 kts 284°
2026-05-04 22:06 40.93988 -73.59251 16967 ft 357 kts 283°
2026-05-04 22:06 40.94548 -73.62458 16959 ft 357 kts 283°
2026-05-04 22:07 40.95107 -73.65658 16958 ft 356 kts 283°
2026-05-04 22:07 40.95670 -73.68845 16966 ft 356 kts 283°
2026-05-04 22:07 40.96239 -73.72032 16964 ft 356 kts 283°
2026-05-04 22:07 40.96813 -73.75222 16958 ft 356 kts 283°
2026-05-04 22:08 40.97390 -73.78406 16966 ft 356 kts 283°
2026-05-04 22:08 40.97967 -73.81589 16971 ft 356 kts 283°
2026-05-04 22:08 40.98548 -73.84787 17112 ft 361 kts 283°
2026-05-04 22:08 40.99137 -73.88036 17803 ft 363 kts 283°
2026-05-04 22:09 40.99727 -73.91286 18541 ft 362 kts 283°
2026-05-04 22:09 41.00314 -73.94533 19136 ft 364 kts 284°
2026-05-04 22:09 41.00906 -73.97810 19694 ft 368 kts 284°
2026-05-04 22:09 41.01503 -74.01118 20231 ft 371 kts 284°
2026-05-04 22:10 41.02103 -74.04451 20784 ft 374 kts 284°
2026-05-04 22:10 41.02707 -74.07808 21332 ft 376 kts 284°
2026-05-04 22:10 41.03308 -74.11159 21874 ft 379 kts 284°
2026-05-04 22:10 41.03919 -74.14573 22407 ft 382 kts 284°
2026-05-04 22:11 41.04534 -74.18010 22929 ft 384 kts 284°
2026-05-04 22:11 41.05151 -74.21472 23436 ft 387 kts 284°
2026-05-04 22:11 41.05771 -74.24952 23839 ft 390 kts 284°
2026-05-04 22:11 41.06395 -74.28464 24274 ft 392 kts 284°
2026-05-04 22:12 41.07022 -74.31997 24710 ft 394 kts 284°
2026-05-04 22:12 41.07649 -74.35539 24856 ft 393 kts 284°
2026-05-04 22:12 41.08272 -74.39067 24872 ft 395 kts 284°
2026-05-04 22:12 41.08889 -74.42567 24867 ft 396 kts 284°
2026-05-04 22:13 41.09516 -74.46130 24864 ft 396 kts 284°
2026-05-04 22:13 41.10140 -74.49682 24870 ft 395 kts 284°
2026-05-04 22:13 41.10761 -74.53222 24861 ft 394 kts 284°
2026-05-04 22:13 41.11380 -74.56758 24859 ft 394 kts 284°
2026-05-04 22:14 41.11998 -74.60294 24867 ft 394 kts 284°
2026-05-04 22:14 41.12617 -74.63839 24858 ft 394 kts 284°
2026-05-04 22:14 41.13258 -74.67374 24858 ft 393 kts 287°
2026-05-04 22:14 41.14186 -74.70787 24873 ft 393 kts 294°
2026-05-04 22:15 41.15505 -74.73989 25011 ft 398 kts 300°
2026-05-04 22:15 41.16921 -74.77148 25501 ft 398 kts 300°
2026-05-04 22:15 41.18304 -74.80281 25941 ft 399 kts 300°
2026-05-04 22:15 41.19702 -74.83479 26307 ft 402 kts 300°
2026-05-04 22:16 41.21104 -74.86701 26645 ft 405 kts 300°
2026-05-04 22:16 41.22518 -74.89957 27004 ft 407 kts 300°
2026-05-04 22:16 41.23934 -74.93225 27375 ft 409 kts 300°
2026-05-04 22:16 41.25358 -74.96512 27718 ft 411 kts 300°
2026-05-04 22:17 41.26788 -74.99815 28066 ft 413 kts 300°
2026-05-04 22:17 41.28226 -75.03141 28395 ft 416 kts 300°
2026-05-04 22:17 41.29669 -75.06482 28710 ft 418 kts 300°
2026-05-04 22:17 41.31120 -75.09844 29016 ft 420 kts 300°
2026-05-04 22:18 41.32573 -75.13213 29357 ft 421 kts 300°
2026-05-04 22:18 41.34029 -75.16594 29825 ft 419 kts 300°
2026-05-04 22:18 41.35476 -75.19960 30270 ft 417 kts 300°
2026-05-04 22:18 41.36917 -75.23314 30639 ft 416 kts 300°
2026-05-04 22:19 41.38332 -75.26611 30953 ft 416 kts 300°
2026-05-04 22:19 41.39768 -75.29959 31299 ft 415 kts 300°
2026-05-04 22:19 41.41198 -75.33300 31660 ft 414 kts 300°
2026-05-04 22:19 41.42623 -75.36631 31998 ft 413 kts 300°
2026-05-04 22:20 41.44045 -75.39960 32320 ft 413 kts 300°
2026-05-04 22:20 41.45467 -75.43291 32672 ft 412 kts 300°
2026-05-04 22:20 41.46883 -75.46611 33006 ft 412 kts 300°
2026-05-04 22:20 41.48158 -75.50022 33336 ft 412 kts 293°
2026-05-04 22:21 41.49191 -75.53596 33686 ft 411 kts 292°
2026-05-04 22:21 41.50198 -75.57166 33974 ft 411 kts 292°
2026-05-04 22:21 41.51206 -75.60741 34235 ft 411 kts 292°
2026-05-04 22:21 41.52216 -75.64300 34482 ft 411 kts 292°
2026-05-04 22:22 41.53233 -75.67866 34716 ft 411 kts 292°
2026-05-04 22:22 41.54251 -75.71423 34966 ft 411 kts 291°
2026-05-04 22:22 41.55269 -75.74981 35198 ft 410 kts 291°
2026-05-04 22:22 41.56275 -75.78498 35433 ft 410 kts 291°
2026-05-04 22:23 41.57304 -75.82100 35658 ft 410 kts 291°
2026-05-04 22:23 41.58308 -75.85622 35821 ft 411 kts 291°
2026-05-04 22:23 41.59326 -75.89213 35817 ft 414 kts 291°
2026-05-04 22:24 41.61347 -75.96391 35818 ft 411 kts 291°
2026-05-04 22:24 41.63348 -76.03515 35820 ft 408 kts 291°
2026-05-04 22:25 41.65333 -76.10599 35821 ft 406 kts 290°
2026-05-04 22:25 41.67307 -76.17659 35810 ft 405 kts 290°
2026-05-04 22:26 41.69280 -76.24721 35813 ft 405 kts 291°
2026-05-04 22:26 41.71274 -76.31792 35808 ft 406 kts 291°
2026-05-04 22:27 41.73270 -76.38880 35798 ft 408 kts 290°
2026-05-04 22:27 41.75268 -76.45999 35799 ft 409 kts 290°
2026-05-04 22:28 41.77267 -76.53151 35800 ft 411 kts 290°
2026-05-04 22:28 41.79247 -76.60305 35783 ft 412 kts 290°
2026-05-04 22:29 41.81238 -76.67527 35781 ft 413 kts 290°
2026-05-04 22:29 41.83224 -76.74749 35784 ft 413 kts 290°
2026-05-04 22:30 41.85208 -76.81985 35767 ft 413 kts 290°
2026-05-04 22:30 41.87188 -76.89220 35762 ft 412 kts 290°
2026-05-04 22:31 41.89154 -76.96438 35762 ft 412 kts 290°
2026-05-04 22:31 41.91105 -77.03662 35771 ft 411 kts 290°
2026-05-04 22:32 41.93046 -77.10874 35766 ft 411 kts 289°
2026-05-04 22:32 41.94983 -77.18084 35771 ft 410 kts 289°
2026-05-04 22:33 41.96587 -77.24075 35773 ft 409 kts 289°
2026-05-04 22:33 41.98511 -77.31276 35779 ft 409 kts 289°
2026-05-04 22:34 42.00425 -77.38454 35789 ft 407 kts 289°
2026-05-04 22:34 42.02349 -77.45622 35788 ft 407 kts 289°
2026-05-04 22:35 42.04302 -77.52777 35792 ft 407 kts 290°
2026-05-04 22:35 42.06252 -77.59930 35790 ft 407 kts 289°
2026-05-04 22:36 42.08196 -77.67102 35795 ft 408 kts 289°
2026-05-04 22:36 42.10125 -77.74244 35796 ft 409 kts 289°
2026-05-04 22:37 42.12067 -77.81459 35796 ft 410 kts 289°
2026-05-04 22:37 42.14008 -77.88691 35804 ft 411 kts 289°
2026-05-04 22:38 42.15948 -77.95939 35800 ft 411 kts 289°
2026-05-04 22:38 42.17888 -78.03209 35797 ft 412 kts 289°
2026-05-04 22:39 42.19821 -78.10475 35800 ft 411 kts 289°
2026-05-04 22:39 42.21748 -78.17743 35780 ft 412 kts 289°
2026-05-04 22:40 42.23675 -78.25027 35785 ft 411 kts 289°
2026-05-04 22:40 42.25557 -78.32318 35786 ft 411 kts 288°
2026-05-04 22:41 42.27367 -78.39640 35775 ft 411 kts 288°
2026-05-04 22:41 42.29162 -78.46923 35783 ft 411 kts 288°
2026-05-04 22:42 42.30971 -78.54250 35772 ft 411 kts 288°
2026-05-04 22:42 42.32779 -78.61584 35771 ft 410 kts 288°
2026-05-04 22:43 42.34579 -78.68905 35761 ft 411 kts 288°
2026-05-04 22:43 42.36375 -78.76235 35757 ft 411 kts 288°
2026-05-04 22:44 42.38172 -78.83590 35745 ft 412 kts 288°
2026-05-04 22:44 42.39962 -78.90939 35751 ft 412 kts 288°
2026-05-04 22:45 42.41752 -78.98260 35740 ft 412 kts 288°
2026-05-04 22:45 42.44451 -79.09294 35736 ft 412 kts 288°
2026-05-04 22:46 42.46243 -79.16658 35740 ft 412 kts 288°
2026-05-04 22:46 42.48034 -79.24041 35734 ft 412 kts 288°
2026-05-04 22:47 42.49820 -79.31431 35738 ft 413 kts 288°
2026-05-04 22:47 42.51603 -79.38831 35729 ft 413 kts 288°
2026-05-04 22:48 42.53380 -79.46229 35739 ft 412 kts 288°
2026-05-04 22:48 42.55138 -79.53573 35732 ft 412 kts 288°
2026-05-04 22:49 42.56901 -79.60957 35737 ft 411 kts 288°
2026-05-04 22:49 42.58679 -79.68341 35726 ft 411 kts 288°
2026-05-04 22:50 42.60458 -79.75711 35723 ft 410 kts 287°
2026-05-04 22:50 42.61477 -79.83308 35718 ft 411 kts 275°
2026-05-04 22:51 42.61782 -79.91054 35713 ft 411 kts 274°
2026-05-04 22:51 42.62089 -79.98810 35703 ft 411 kts 274°
2026-05-04 22:52 42.62413 -80.06559 35707 ft 411 kts 275°
2026-05-04 22:52 42.62739 -80.14260 35700 ft 411 kts 275°
2026-05-04 22:53 42.63062 -80.22009 35703 ft 410 kts 275°
2026-05-04 22:53 42.63379 -80.29747 35702 ft 410 kts 275°
2026-05-04 22:54 42.63690 -80.37466 35690 ft 409 kts 275°
2026-05-04 22:54 42.63996 -80.45173 35687 ft 408 kts 275°
2026-05-04 22:55 42.64293 -80.52857 35699 ft 407 kts 274°
2026-05-04 22:55 42.64565 -80.60550 35692 ft 407 kts 274°
2026-05-04 22:56 42.64829 -80.68235 35687 ft 407 kts 274°
2026-05-04 22:56 42.65091 -80.75906 35684 ft 406 kts 274°
2026-05-04 22:57 42.65347 -80.83567 35684 ft 406 kts 274°
2026-05-04 22:57 42.65598 -80.91191 35686 ft 406 kts 274°
2026-05-04 22:58 42.65845 -80.98862 35693 ft 406 kts 274°
2026-05-04 22:58 42.66087 -81.06540 35681 ft 407 kts 274°
2026-05-04 22:59 42.66325 -81.14218 35686 ft 407 kts 274°
2026-05-04 22:59 42.66558 -81.21906 35682 ft 407 kts 274°
2026-05-04 23:00 42.66979 -81.29567 35678 ft 406 kts 280°
2026-05-04 23:00 42.67872 -81.37150 35673 ft 407 kts 280°
2026-05-04 23:01 42.68778 -81.44741 35679 ft 407 kts 280°
2026-05-04 23:01 42.69662 -81.52334 35671 ft 407 kts 280°
2026-05-04 23:02 42.70531 -81.59931 35654 ft 407 kts 280°
2026-05-04 23:02 42.71393 -81.67529 35657 ft 406 kts 280°
2026-05-04 23:03 42.72244 -81.75078 35645 ft 406 kts 280°
2026-05-04 23:03 42.73094 -81.82665 35644 ft 406 kts 280°
2026-05-04 23:04 42.73939 -81.90250 35639 ft 405 kts 279°
2026-05-04 23:04 42.74778 -81.97833 35635 ft 405 kts 279°
2026-05-04 23:05 42.75613 -82.05424 35627 ft 405 kts 279°
2026-05-04 23:05 42.76443 -82.13015 35638 ft 406 kts 279°
2026-05-04 23:06 42.77268 -82.20606 35619 ft 406 kts 279°
2026-05-04 23:06 42.78088 -82.28205 35625 ft 406 kts 279°
2026-05-04 23:07 42.78903 -82.35811 35610 ft 406 kts 279°
2026-05-04 23:07 42.79714 -82.43407 35610 ft 405 kts 279°
2026-05-04 23:08 42.80614 -82.50963 35595 ft 403 kts 286°
2026-05-04 23:08 42.82847 -82.57929 35605 ft 403 kts 300°
2026-05-04 23:09 42.86352 -82.63892 35603 ft 404 kts 309°
2026-05-04 23:09 42.90121 -82.69587 35608 ft 404 kts 310°
2026-05-04 23:10 42.93861 -82.75261 35598 ft 405 kts 309°
2026-05-04 23:10 42.97609 -82.81011 35598 ft 405 kts 309°
2026-05-04 23:11 43.01340 -82.86773 35587 ft 405 kts 309°
2026-05-04 23:11 43.05078 -82.92563 35585 ft 406 kts 309°
2026-05-04 23:12 43.08812 -82.98362 35572 ft 406 kts 309°
2026-05-04 23:12 43.12538 -83.04159 35577 ft 405 kts 309°
2026-05-04 23:13 43.16258 -83.09956 35570 ft 405 kts 309°
2026-05-04 23:13 43.19970 -83.15755 35576 ft 405 kts 309°
2026-05-04 23:14 43.23662 -83.21531 35567 ft 405 kts 309°
2026-05-04 23:14 43.27368 -83.27343 35572 ft 404 kts 309°
2026-05-04 23:15 43.31066 -83.33153 35562 ft 404 kts 308°
2026-05-04 23:15 43.34761 -83.38971 35568 ft 404 kts 308°
2026-05-04 23:16 43.38456 -83.44801 35559 ft 404 kts 308°
2026-05-04 23:16 43.42151 -83.50642 35562 ft 404 kts 308°
2026-05-04 23:17 43.45219 -83.55501 35557 ft 404 kts 308°
2026-05-04 23:17 43.49511 -83.62313 35567 ft 405 kts 308°
2026-05-04 23:18 43.52600 -83.67224 35556 ft 405 kts 308°
2026-05-04 23:18 43.56278 -83.73084 35565 ft 404 kts 308°
2026-05-04 23:19 43.59961 -83.78964 35559 ft 405 kts 308°
2026-05-04 23:19 43.63637 -83.84845 35566 ft 404 kts 308°
2026-05-04 23:20 43.67309 -83.90731 35556 ft 404 kts 308°
2026-05-04 23:20 43.70951 -83.96580 35563 ft 404 kts 308°
2026-05-04 23:21 43.74627 -84.02496 35533 ft 404 kts 308°
2026-05-04 23:21 43.78290 -84.08404 35540 ft 404 kts 308°
2026-05-04 23:22 43.81944 -84.14311 35533 ft 404 kts 308°
2026-05-04 23:22 43.85597 -84.20227 35543 ft 404 kts 307°
2026-05-04 23:23 43.89217 -84.26101 35524 ft 403 kts 307°
2026-05-04 23:23 43.92857 -84.32021 35520 ft 403 kts 307°
2026-05-04 23:24 43.96495 -84.37948 35512 ft 403 kts 307°
2026-05-04 23:24 44.00125 -84.43876 35522 ft 403 kts 307°
2026-05-04 23:25 44.03753 -84.49813 35510 ft 402 kts 307°
2026-05-04 23:25 44.07374 -84.55749 35515 ft 402 kts 307°
2026-05-04 23:26 44.10982 -84.61678 35517 ft 402 kts 307°
2026-05-04 23:26 44.14568 -84.67582 35523 ft 401 kts 307°
2026-05-04 23:27 44.18171 -84.73527 35518 ft 401 kts 307°
2026-05-04 23:27 44.21767 -84.79472 35519 ft 401 kts 307°
2026-05-04 23:28 44.25362 -84.85427 35518 ft 401 kts 307°
2026-05-04 23:28 44.28954 -84.91391 35514 ft 401 kts 307°
2026-05-04 23:29 44.32541 -84.97359 35512 ft 401 kts 307°
2026-05-04 23:29 44.36126 -85.03337 35515 ft 401 kts 306°
2026-05-04 23:30 44.39689 -85.09289 35497 ft 402 kts 306°
2026-05-04 23:30 44.43275 -85.15294 35498 ft 402 kts 306°
2026-05-04 23:31 44.46862 -85.21311 35495 ft 402 kts 306°
2026-05-04 23:31 44.50444 -85.27334 35492 ft 403 kts 306°
2026-05-04 23:32 44.54029 -85.33374 35477 ft 403 kts 306°
2026-05-04 23:32 44.57612 -85.39423 35470 ft 403 kts 306°
2026-05-04 23:33 44.61093 -85.45511 35442 ft 400 kts 297°
2026-05-04 23:33 44.62154 -85.49067 35470 ft 395 kts 283°
2026-05-04 23:33 44.62514 -85.52881 35455 ft 395 kts 270°
2026-05-04 23:34 44.62207 -85.56710 35451 ft 397 kts 258°
2026-05-04 23:34 44.61264 -85.60370 35457 ft 401 kts 247°
2026-05-04 23:34 44.59732 -85.63672 35443 ft 409 kts 233°
2026-05-04 23:34 44.57682 -85.66482 35468 ft 413 kts 227°
2026-05-04 23:35 44.53321 -85.71764 35462 ft 414 kts 226°
2026-05-04 23:35 44.48927 -85.76983 35469 ft 414 kts 226°
2026-05-04 23:36 44.44566 -85.82231 35479 ft 413 kts 227°
2026-05-04 23:36 44.40226 -85.87498 35476 ft 413 kts 227°
2026-05-04 23:37 44.35890 -85.92768 35471 ft 413 kts 227°
2026-05-04 23:37 44.31559 -85.98023 35471 ft 412 kts 227°
2026-05-04 23:38 44.27231 -86.03265 35464 ft 411 kts 227°
2026-05-04 23:38 44.22930 -86.08461 35466 ft 411 kts 227°
2026-05-04 23:39 44.18599 -86.13685 35470 ft 411 kts 227°
2026-05-04 23:39 44.14282 -86.18880 35365 ft 410 kts 227°
2026-05-04 23:40 44.10060 -86.23938 35446 ft 392 kts 227°
2026-05-04 23:40 44.05940 -86.28877 35486 ft 391 kts 227°
2026-05-04 23:41 44.01820 -86.33814 35494 ft 391 kts 227°
2026-05-04 23:41 43.97711 -86.38726 35500 ft 393 kts 227°
2026-05-04 23:42 43.93561 -86.43675 35505 ft 394 kts 227°
2026-05-04 23:42 43.89381 -86.48649 35495 ft 396 kts 227°
2026-05-04 23:43 43.85184 -86.53632 35499 ft 398 kts 227°
2026-05-04 23:43 43.80972 -86.58622 35510 ft 399 kts 227°
2026-05-04 23:44 43.76745 -86.63622 35514 ft 400 kts 227°
2026-05-04 23:44 43.72536 -86.68590 35524 ft 400 kts 226°
2026-05-04 23:45 43.68297 -86.73584 35527 ft 400 kts 226°
2026-05-04 23:45 43.64058 -86.78569 35529 ft 400 kts 226°
2026-05-04 23:46 43.59812 -86.83552 35522 ft 400 kts 226°
2026-05-04 23:46 43.55577 -86.88512 35525 ft 399 kts 226°
2026-05-04 23:47 43.51336 -86.93472 35525 ft 399 kts 226°
2026-05-04 23:47 43.47098 -86.98417 35529 ft 399 kts 226°
2026-05-04 23:48 43.42859 -87.03355 35523 ft 399 kts 226°
2026-05-04 23:48 43.38642 -87.08258 35522 ft 399 kts 226°
2026-05-04 23:49 43.34395 -87.13186 35525 ft 400 kts 226°
2026-05-04 23:49 43.30141 -87.18113 35522 ft 400 kts 226°
2026-05-04 23:50 43.25884 -87.23035 35522 ft 400 kts 226°
2026-05-04 23:50 43.21619 -87.27956 35521 ft 401 kts 226°
2026-05-04 23:51 43.17346 -87.32876 35520 ft 401 kts 226°
2026-05-04 23:51 43.13070 -87.37792 35519 ft 402 kts 226°
2026-05-04 23:52 43.08771 -87.42727 35050 ft 410 kts 225°
2026-05-04 23:52 43.06582 -87.45238 34457 ft 409 kts 225°
2026-05-04 23:52 43.04409 -87.47721 34012 ft 404 kts 225°
2026-05-04 23:53 43.02260 -87.50173 33564 ft 400 kts 225°
2026-05-04 23:53 43.00134 -87.52597 33062 ft 396 kts 225°
2026-05-04 23:53 42.98030 -87.54996 32607 ft 391 kts 225°
2026-05-04 23:53 42.95975 -87.57337 32165 ft 387 kts 225°
2026-05-04 23:54 42.93922 -87.59675 31734 ft 382 kts 225°
2026-05-04 23:54 42.91888 -87.61990 31295 ft 378 kts 225°
2026-05-04 23:54 42.89871 -87.64285 30880 ft 375 kts 225°
2026-05-04 23:54 42.87878 -87.66550 30466 ft 371 kts 225°
2026-05-04 23:55 42.85901 -87.68795 30054 ft 368 kts 225°
2026-05-04 23:55 42.83944 -87.71016 29645 ft 365 kts 225°
2026-05-04 23:55 42.80083 -87.75389 28762 ft 357 kts 225°
2026-05-04 23:56 42.78183 -87.77538 28343 ft 352 kts 225°
2026-05-04 23:56 42.76334 -87.79629 27934 ft 348 kts 225°
2026-05-04 23:56 42.74480 -87.81723 27525 ft 345 kts 225°
2026-05-04 23:56 42.72641 -87.83798 27122 ft 341 kts 225°
2026-05-04 23:57 42.70824 -87.85849 26709 ft 338 kts 225°
2026-05-04 23:57 42.69023 -87.87878 26310 ft 335 kts 225°
2026-05-04 23:57 42.67236 -87.89892 25919 ft 332 kts 225°
2026-05-04 23:57 42.65461 -87.91889 25528 ft 330 kts 226°
2026-05-04 23:58 42.63702 -87.93868 25145 ft 327 kts 226°
2026-05-04 23:58 42.61956 -87.95830 24760 ft 325 kts 226°
2026-05-04 23:58 42.60223 -87.97775 24380 ft 322 kts 226°
2026-05-04 23:58 42.58497 -87.99713 23998 ft 320 kts 226°
2026-05-04 23:59 42.56785 -88.01632 23631 ft 318 kts 226°
2026-05-04 23:59 42.55082 -88.03541 23250 ft 316 kts 226°
2026-05-04 23:59 42.53392 -88.05433 22842 ft 315 kts 226°
2026-05-04 23:59 42.51705 -88.07320 22416 ft 312 kts 225°
2026-05-05 00:00 42.50039 -88.09182 22047 ft 309 kts 225°
2026-05-05 00:00 42.49502 -88.09782 21932 ft 308 kts 225°
2026-05-05 00:00 42.46746 -88.12861 21313 ft 306 kts 225°
2026-05-05 00:00 42.45103 -88.14695 20944 ft 306 kts 225°
2026-05-05 00:01 42.43447 -88.16544 20577 ft 313 kts 225°
2026-05-05 00:01 42.41745 -88.18445 20188 ft 320 kts 225°
2026-05-05 00:01 42.40041 -88.20342 19787 ft 319 kts 225°
2026-05-05 00:01 42.38331 -88.22241 19412 ft 317 kts 224°
2026-05-05 00:02 42.36635 -88.24123 19031 ft 314 kts 224°
2026-05-05 00:02 42.34950 -88.25990 18653 ft 312 kts 223°
2026-05-05 00:02 42.33027 -88.27419 18258 ft 322 kts 204°
2026-05-05 00:02 42.30777 -88.27873 17866 ft 334 kts 185°
2026-05-05 00:03 42.28468 -88.27238 17540 ft 344 kts 165°
2026-05-05 00:03 42.26402 -88.25532 17141 ft 356 kts 142°
2026-05-05 00:03 42.24728 -88.23042 16805 ft 358 kts 135°
2026-05-05 00:03 42.23150 -88.20450 16541 ft 356 kts 134°
2026-05-05 00:04 42.21559 -88.17857 16298 ft 362 kts 135°
2026-05-05 00:04 42.19874 -88.15352 15995 ft 355 kts 146°
2026-05-05 00:04 42.17813 -88.13717 15669 ft 339 kts 164°
2026-05-05 00:04 42.16367 -88.12941 15427 ft 336 kts 166°
2026-05-05 00:05 42.14182 -88.11848 15058 ft 335 kts 166°
2026-05-05 00:05 42.11987 -88.10772 14685 ft 334 kts 166°
2026-05-05 00:05 42.09099 -88.09342 14187 ft 333 kts 166°
2026-05-05 00:05 42.06932 -88.08253 13814 ft 332 kts 166°
2026-05-05 00:06 42.04771 -88.07160 13414 ft 331 kts 166°
2026-05-05 00:06 42.02616 -88.06064 12999 ft 330 kts 165°
2026-05-05 00:06 42.01168 -88.05327 12726 ft 329 kts 165°
2026-05-05 00:06 41.99031 -88.04238 12349 ft 327 kts 165°
2026-05-05 00:07 41.96904 -88.03154 11960 ft 327 kts 165°
2026-05-05 00:07 41.94782 -88.02074 11571 ft 325 kts 165°
2026-05-05 00:07 41.92672 -88.01001 11202 ft 320 kts 165°
2026-05-05 00:07 41.90677 -87.99743 10791 ft 319 kts 148°
2026-05-05 00:08 41.89190 -87.97598 10386 ft 321 kts 122°
2026-05-05 00:08 41.88450 -87.94809 9986 ft 315 kts 96°
2026-05-05 00:08 41.88370 -87.91942 9637 ft 301 kts 88°
2026-05-05 00:08 41.88398 -87.89167 9300 ft 295 kts 87°
2026-05-05 00:09 41.88423 -87.86420 9005 ft 291 kts 88°
2026-05-05 00:09 41.88431 -87.83743 8693 ft 282 kts 89°
2026-05-05 00:09 41.88432 -87.81141 8414 ft 275 kts 89°
2026-05-05 00:09 41.88430 -87.78596 8084 ft 270 kts 89°
2026-05-05 00:10 41.88428 -87.76100 7743 ft 265 kts 90°
2026-05-05 00:10 41.88426 -87.73648 7386 ft 260 kts 90°
2026-05-05 00:10 41.88423 -87.71241 7034 ft 256 kts 90°
2026-05-05 00:10 41.88420 -87.68889 6702 ft 255 kts 90°
2026-05-05 00:11 41.88416 -87.66517 6359 ft 253 kts 90°
2026-05-05 00:11 41.88411 -87.64157 6023 ft 252 kts 90°
2026-05-05 00:11 41.88406 -87.61818 5680 ft 250 kts 91°
2026-05-05 00:11 41.88401 -87.59495 5318 ft 249 kts 91°
2026-05-05 00:12 41.88396 -87.57180 4959 ft 247 kts 92°
2026-05-05 00:12 41.88390 -87.54876 4623 ft 245 kts 92°
2026-05-05 00:12 41.88384 -87.52623 4331 ft 238 kts 92°
2026-05-05 00:12 41.88378 -87.50437 4084 ft 229 kts 93°
2026-05-05 00:13 41.88366 -87.48336 4025 ft 222 kts 94°
2026-05-05 00:13 41.88331 -87.46263 4020 ft 223 kts 94°
2026-05-05 00:13 41.88676 -87.44255 3997 ft 220 kts 53°
2026-05-05 00:13 41.89811 -87.43128 4037 ft 191 kts
2026-05-05 00:14 41.91034 -87.42995 4009 ft 169 kts 341°
2026-05-05 00:14 41.92084 -87.43476 4018 ft 152 kts 317°
2026-05-05 00:14 41.92881 -87.44342 4025 ft 144 kts 302°
2026-05-05 00:14 41.93362 -87.45452 4025 ft 133 kts 282°
2026-05-05 00:15 41.93686 -87.46629 4020 ft 135 kts 283°
2026-05-05 00:15 41.94022 -87.47807 4023 ft 135 kts 283°
2026-05-05 00:15 41.94355 -87.48989 4022 ft 136 kts 283°
2026-05-05 00:15 41.94688 -87.50176 4021 ft 136 kts 283°
2026-05-05 00:16 41.95017 -87.51356 4023 ft 137 kts 282°
2026-05-05 00:16 41.95348 -87.52552 4019 ft 137 kts 282°
2026-05-05 00:16 41.95678 -87.53751 4020 ft 137 kts 282°
2026-05-05 00:16 41.96007 -87.54947 4019 ft 136 kts 282°
2026-05-05 00:17 41.96334 -87.56141 4018 ft 136 kts 282°
2026-05-05 00:17 41.96659 -87.57332 4018 ft 136 kts 282°
2026-05-05 00:17 41.96983 -87.58521 4019 ft 135 kts 282°
2026-05-05 00:17 41.97306 -87.59712 4020 ft 135 kts 282°
2026-05-05 00:18 41.97625 -87.60885 4020 ft 135 kts 282°
2026-05-05 00:18 41.97951 -87.62086 4001 ft 135 kts 282°
2026-05-05 00:18 41.98270 -87.63262 3999 ft 135 kts 282°
2026-05-05 00:18 41.98592 -87.64454 4004 ft 135 kts 282°
2026-05-05 00:19 41.98768 -87.65670 4001 ft 131 kts 268°
2026-05-05 00:19 41.98805 -87.66898 3997 ft 132 kts 266°
2026-05-05 00:19 41.98834 -87.68165 3759 ft 140 kts 266°
2026-05-05 00:19 41.98856 -87.69495 3293 ft 142 kts 266°
2026-05-05 00:20 41.98854 -87.70757 2948 ft 127 kts 263°
2026-05-05 00:20 41.98851 -87.71954 2640 ft 130 kts 263°
2026-05-05 00:20 41.98848 -87.73210 2367 ft 136 kts 264°
2026-05-05 00:20 41.98845 -87.74477 2193 ft 134 kts 264°
2026-05-05 00:21 41.98844 -87.75687 2196 ft 127 kts 263°
2026-05-05 00:21 41.98844 -87.76872 2205 ft 127 kts 263°
2026-05-05 00:21 41.98842 -87.78062 2190 ft 127 kts 263°
2026-05-05 00:21 41.98840 -87.79254 2049 ft 127 kts 262°
2026-05-05 00:22 41.98841 -87.80424 1874 ft 122 kts 260°
2026-05-05 00:22 41.98837 -87.81584 1721 ft 126 kts 259°
2026-05-05 00:22 41.98835 -87.82750 1566 ft 128 kts 262°
2026-05-05 00:22 41.98834 -87.84010 1432 ft 140 kts 264°
2026-05-05 00:23 41.98835 -87.85289 1224 ft 133 kts 263°
2026-05-05 00:23 41.98832 -87.86536 1035 ft 137 kts 265°
2026-05-05 00:23 41.98825 -87.87813 940 ft 133 kts 264°
2026-05-05 00:23 41.98828 -87.89029 756 ft 128 kts 264°
2026-05-05 00:24 41.98826 -87.90165 671 ft 114 kts 264°
2026-05-05 00:24 41.98821 -87.91036 666 ft 63 kts 271°
2026-05-05 00:24 41.98828 -87.91335 662 ft 0 kts 267°
2026-05-05 00:24 41.98828 -87.91359 662 ft 10 kts 266°
2026-05-05 00:25 41.98788 -87.91472 664 ft 16 kts 239°
2026-05-05 00:25 41.98721 -87.91613 666 ft 18 kts 241°
2026-05-05 00:25 41.98708 -87.91645 667 ft 0 kts 241°
2026-05-05 00:26 41.98698 -87.91672 665 ft 6 kts 245°
2026-05-05 00:26 41.98683 -87.91739 669 ft 9 kts 257°
2026-05-05 00:26 41.98662 -87.91816 670 ft 6 kts 226°
2026-05-05 00:27 41.98620 -87.91825 670 ft 8 kts 173°
2026-05-05 00:27 41.98546 -87.91820 668 ft 13 kts 178°
2026-05-05 00:27 41.98445 -87.91818 666 ft 16 kts 180°
2026-05-05 00:27 41.98325 -87.91818 669 ft 18 kts 179°
2026-05-05 00:28 41.98194 -87.91818 669 ft 20 kts 180°
2026-05-05 00:28 41.98089 -87.91816 667 ft 15 kts 172°
2026-05-05 00:28 41.97997 -87.91751 667 ft 15 kts 140°
2026-05-05 00:28 41.97919 -87.91664 666 ft 14 kts 139°
2026-05-05 00:29 41.97845 -87.91581 666 ft 14 kts 141°
2026-05-05 00:29 41.97775 -87.91502 667 ft 8 kts 139°
2026-05-05 00:29 41.97746 -87.91443 666 ft 8 kts 99°
2026-05-05 00:29 41.97758 -87.91373 667 ft 8 kts 76°
2026-05-05 00:30 41.97781 -87.91307 667 ft 8 kts 39°
2026-05-05 00:30 41.97823 -87.91240 667 ft 10 kts 67°
2026-05-05 00:30 41.97835 -87.91149 667 ft 6 kts 98°
2026-05-05 00:30 41.97833 -87.91131 666 ft 0 kts 98°
2026-05-05 00:31 41.97832 -87.91125 667 ft 3 kts 100°
2026-05-05 00:31 41.97832 -87.91122 667 ft 0 kts 99°